Powrót do katalogu

SL-8 DEB

LostLEO
NORAD 39692·DEBRIS·🇷🇺 Russia

Wystrzelony Feb 12, 1991 z Plesetsk Cosmodrome

Loading…

Następne Przeloty (najbliższe 24 godziny)

TLE

NieaktualneSource: Space-Track

Epoka: May 14, 2025, 17:27 UTC

1 39692U 91009DF  25134.72774287  .00000525  00000-0  40208-2 0  9995
2 39692  74.0931 259.5369 0097005 202.1652 157.5187 12.39350746500608

Śledź SL-8 DEB w czasie rzeczywistym z AllMySat

Download on the App Store